MST,Max TemperatureF,Mean TemperatureF,Min TemperatureF,Max Dew PointF,MeanDew PointF,Min DewpointF,Max Humidity, Mean Humidity, Min Humidity, Max Sea Level PressureIn, Mean Sea Level PressureIn, Min Sea Level PressureIn, Max VisibilityMiles, Mean VisibilityMiles, Min VisibilityMiles, Max Wind SpeedMPH, Mean Wind SpeedMPH, Max Gust SpeedMPH,PrecipitationIn, CloudCover, Events, WindDirDegrees
2010-10-1,89,76,64,37,27,21,25,17,10,30.03,29.96,29.89,10,10,10,7,2,,0.00,0,,225
2010-10-2,89,76,64,44,38,35,40,27,15,30.01,29.95,29.87,10,10,10,10,5,21,0.00,0,,232
2010-10-3,80,70,60,56,47,43,78,48,28,30.15,29.99,29.88,10,10,7,15,4,32,0.05,2,Rain-Thunderstorm,124
2010-10-4,69,62,55,54,52,46,90,73,44,30.15,30.03,29.96,10,8,1,14,5,22,0.57,4,Rain-Thunderstorm,288
2010-10-5,62,58,55,55,53,51,96,85,70,30.11,30.03,29.95,10,9,2,9,3,23,0.33,6,Rain-Thunderstorm,355
2010-10-6,59,54,50,55,50,46,100,87,72,30.27,30.15,30.03,10,8,0,14,4,,0.77,5,Fog-Rain-Thunderstorm,62
2010-10-7,75,63,51,54,41,25,92,56,19,30.08,30.01,29.89,10,10,9,16,4,26,0.00,0,,238
2010-10-8,66,57,48,41,37,33,74,48,31,30.15,30.10,30.04,10,10,10,5,2,,0.00,0,,45
2010-10-9,70,59,48,44,40,29,74,51,22,30.23,30.16,30.11,10,9,5,6,1,,0.00,0,,15
2010-10-10,71,61,51,42,37,32,71,44,25,30.16,30.06,29.96,10,10,5,5,3,,0.00,0,,228
2010-10-11,75,63,51,41,38,34,63,42,22,30.04,29.99,29.94,10,10,10,5,3,,0.00,0,,136
2010-10-12,75,65,55,45,42,40,67,46,28,30.25,30.10,30.01,10,10,10,6,3,,0.00,0,,236
2010-10-13,75,64,52,43,35,25,61,38,16,30.34,30.22,30.16,10,10,10,8,2,,0.00,0,,358
2010-10-14,75,64,52,38,35,29,59,37,18,30.36,30.20,30.10,10,10,8,6,2,,0.00,0,,357
2010-10-15,78,66,54,40,38,35,59,38,21,30.14,30.05,29.96,10,10,10,6,3,,0.00,0,,256
2010-10-16,79,67,55,39,37,35,55,37,20,30.17,30.00,29.93,10,10,10,7,3,,0.00,0,,85
2010-10-17,73,64,54,53,42,37,87,47,26,30.03,29.96,29.87,10,10,7,13,4,21,0.02,3,Rain-Thunderstorm,287
2010-10-18,66,60,55,53,50,46,93,71,47,30.12,29.98,29.90,10,10,6,6,2,,0.08,3,Rain,22
2010-10-19,70,60,51,48,45,42,83,60,38,30.05,29.97,29.91,10,10,10,8,2,,0.00,0,,39
2010-10-20,68,61,54,48,43,38,75,55,36,29.98,29.94,29.85,10,10,10,10,5,20,0.01,2,Rain,309
2010-10-21,61,56,51,47,44,43,80,66,52,30.07,29.93,29.84,10,10,10,12,3,17,0.00,4,,270
2010-10-22,60,56,51,47,43,41,77,62,49,29.89,29.84,29.79,10,10,10,10,2,18,0.01,6,Rain,297
2010-10-23,62,56,51,48,44,41,77,66,50,30.01,29.92,29.86,10,10,8,7,2,,0.01,5,Rain,158
2010-10-24,66,57,48,44,42,40,74,59,40,30.00,29.90,29.68,10,10,10,7,3,,0.00,2,,183
2010-10-25,61,53,45,43,30,15,59,41,20,29.85,29.70,29.55,10,10,10,20,7,34,0.00,4,,273
2010-10-26,57,47,37,25,21,12,57,36,18,29.92,29.84,29.75,10,10,10,13,3,22,0.00,1,,276
2010-10-27,53,46,39,23,13,4,45,27,14,30.41,30.24,29.94,10,10,10,10,7,,0.00,0,,28
2010-10-28,57,46,36,27,19,13,51,35,20,30.50,30.39,30.30,10,10,5,7,2,,0.00,0,,52
2010-10-29,61,50,39,31,27,24,58,43,26,30.30,30.18,30.04,10,10,9,6,1,,0.00,0,,275
2010-10-30,69,56,42,34,29,23,65,42,20,30.03,29.93,29.76,10,10,10,14,3,29,0.00,0,,275
2010-10-31,61,52,42,32,29,26,58,44,28,30.21,30.10,30.00,10,10,4,5,1,,0.00,0,,89